Theta_e
317 317 317 317 317 317 318 318 318 318 318 318 318 318 317 318 319 320 321 322 323 323 323 323 323 323 324 324 324 323 324 324 324 323 321 318 316 316 321 322 319 317
317 318 319 319 318 318 318 318 319 319 319 318 318 318 319 319 320 321 322 323 323 323 323 323 323 324 324 324 324 323 323 323 323 322 321 319 318 318 319 320 319 318
317 318 319 318 318 317 318 319 320 320 320 320 320 320 320 320 320 321 322 323 324 324 324 324 324 325 325 324 325 324 323 321 320 320 320 319 320 320 320 321 320 320
317 317 317 317 317 318 320 321 321 321 321 321 321 321 321 321 321 322 322 324 325 325 325 325 325 325 325 325 325 325 322 320 319 319 319 319 320 321 321 321 320 320
317 317 317 317 318 319 321 322 322 322 323 323 322 322 322 322 322 322 323 324 325 326 326 326 326 326 326 325 325 324 320 319 319 319 319 320 320 319 319 319 318 319
317 318 320 320 321 322 323 323 323 324 324 324 324 324 324 323 323 323 324 325 326 326 326 327 327 327 326 326 325 323 321 320 320 319 319 319 318 317 317 317 317 318
316 318 321 322 324 324 324 324 325 325 326 326 326 325 325 324 324 324 324 325 326 327 326 326 327 326 326 326 325 324 323 322 322 320 319 319 318 318 318 317 317 315
313 315 318 321 323 324 324 325 325 326 326 326 326 326 325 325 325 325 325 326 326 326 325 325 325 326 327 327 327 325 324 324 323 321 320 319 319 320 319 318 316 309
311 312 314 316 319 321 322 323 324 324 325 325 325 325 325 325 325 325 326 326 326 325 324 323 323 324 326 327 327 326 325 324 324 323 321 319 319 319 318 317 313 303
310 310 312 313 315 318 320 321 323 323 324 324 325 325 325 325 325 325 325 325 325 324 323 322 322 324 326 327 327 327 326 324 324 323 321 318 317 316 316 315 309 299
310 310 311 312 314 316 318 320 321 322 323 324 324 324 324 324 324 323 323 324 324 323 322 321 322 324 326 327 327 327 325 323 323 324 321 318 316 314 314 313 305 297
310 310 310 311 312 314 316 318 319 320 321 322 322 322 322 322 323 323 324 324 323 322 321 322 323 325 326 327 327 326 324 322 323 324 321 318 317 314 312 309 302 296
311 311 311 311 311 312 314 316 317 318 319 320 321 321 322 323 323 324 323 322 320 320 322 324 325 326 327 326 326 326 325 323 323 323 321 319 318 315 312 306 299 296
312 312 312 312 312 312 312 312 313 314 315 316 317 318 320 321 322 322 322 322 322 321 322 325 326 326 326 326 325 325 326 324 324 323 321 319 318 317 312 304 298 296
311 311 311 311 311 311 312 312 312 312 313 315 316 318 319 320 322 323 324 324 324 323 322 324 325 326 326 325 324 324 325 324 323 322 320 319 318 317 311 302 296 296
311 311 311 311 311 311 311 311 311 312 312 313 315 316 317 318 319 321 322 322 322 323 323 324 324 325 326 325 324 324 324 323 323 321 321 319 319 318 312 301 295 295
311 311 311 311 311 311 311 311 311 311 311 311 313 314 315 317 319 320 321 322 322 324 324 324 324 325 325 323 323 324 323 323 323 321 321 319 318 318 313 302 295 295
312 312 312 312 312 312 311 311 311 310 310 310 311 312 314 316 317 319 320 321 322 322 323 324 324 323 323 322 322 323 323 322 321 321 320 319 316 315 312 302 295 295
312 311 312 312 312 312 312 311 311 310 310 310 310 311 312 312 313 315 318 319 320 321 322 322 322 322 322 322 323 323 322 321 320 320 320 319 315 313 310 302 295 295
311 311 312 312 312 312 312 311 311 310 310 309 309 310 310 310 310 312 315 317 319 320 321 322 321 320 321 321 322 321 321 320 319 319 320 318 315 312 308 301 296 295
311 311 311 312 312 312 312 312 312 311 310 309 309 308 308 309 310 311 312 314 315 316 317 318 319 319 319 320 320 319 318 318 318 318 318 317 314 311 307 301 296 295
310 311 311 312 312 312 312 312 312 311 310 310 310 309 309 310 312 312 313 313 313 314 315 317 319 320 320 320 319 317 317 317 317 317 317 317 314 310 305 299 295 295
310 311 311 312 312 311 312 311 311 311 310 309 311 312 312 313 315 315 316 316 316 317 317 318 319 320 320 320 318 317 316 317 317 317 316 316 314 309 303 298 295 294
310 310 311 312 311 311 311 311 311 310 310 310 311 313 314 315 316 317 317 317 318 319 319 319 319 319 319 318 317 317 317 317 317 316 315 314 312 307 301 296 294 294
310 310 311 311 311 311 311 311 310 309 310 310 312 314 315 315 315 316 316 317 317 318 318 318 318 317 317 317 316 316 316 316 316 316 314 312 309 305 299 295 293 293
310 310 311 311 311 311 310 310 309 309 309 310 311 313 314 314 314 315 315 316 317 317 318 318 318 317 317 316 316 315 315 315 315 314 314 312 309 304 299 295 293 293
Wind_Speed
43 42 42 41 41 41 41 41 41 41 41 41 42 42 41 40 39 39 39 38 38 38 37 37 36 36 35 34 33 33 34 34 34 33 31 30 27 26 27 27 26 26
44 43 43 43 42 42 42 42 41 41 41 41 41 41 40 39 39 38 38 38 38 38 38 38 37 36 35 35 33 33 34 35 36 36 33 30 27 27 29 28 28 27
44 44 43 43 43 42 42 42 42 42 42 41 41 40 39 38 37 37 36 37 37 38 38 38 37 36 36 35 34 33 34 35 35 34 32 30 27 28 30 30 30 29
43 43 44 43 43 43 43 43 43 43 42 42 41 39 38 37 36 36 35 36 36 37 37 37 37 37 36 36 35 33 32 32 30 29 29 29 28 29 31 32 33 32
41 43 44 44 44 44 44 44 44 44 43 42 41 39 38 37 36 35 35 35 36 36 37 37 37 37 37 36 35 33 31 29 27 26 27 29 31 32 33 33 34 34
41 42 43 44 44 44 44 45 44 43 43 41 40 39 38 37 36 36 35 35 36 36 37 37 37 38 38 37 36 33 30 27 26 26 29 31 32 32 31 31 32 32
39 41 42 43 43 43 43 44 43 43 42 40 39 39 38 38 37 36 36 36 35 36 37 38 39 39 39 39 37 33 29 28 27 26 27 30 31 30 31 31 32 32
37 38 39 40 41 41 42 42 41 41 40 39 39 39 39 38 37 37 37 36 36 36 37 38 39 40 41 42 39 34 30 29 30 27 26 29 32 33 34 34 32 33
33 34 36 37 38 38 39 38 38 38 37 38 38 39 38 38 37 37 36 36 36 37 36 35 36 38 42 45 42 37 30 29 32 30 27 28 32 35 36 34 33 36
28 30 32 33 34 35 35 35 35 35 35 36 37 37 37 37 36 36 36 37 36 35 34 33 33 36 41 46 46 39 30 30 34 32 27 28 30 32 32 32 35 38
25 26 27 28 30 31 32 33 33 33 34 35 36 36 36 36 36 36 35 35 35 34 33 32 32 34 38 45 48 40 29 31 36 33 28 27 26 27 29 32 36 38
20 21 22 24 25 28 29 31 32 33 33 34 35 35 35 35 35 34 33 35 36 34 32 29 29 31 34 42 48 39 27 31 37 35 30 27 25 25 27 31 35 36
14 16 18 20 22 25 28 30 32 33 33 33 34 34 34 33 33 33 33 34 33 28 26 26 27 30 34 41 46 39 28 33 39 37 31 28 26 25 26 31 35 35
12 14 15 17 19 21 24 27 29 31 32 32 33 33 32 31 31 31 29 28 26 23 24 26 28 31 34 37 40 38 34 38 40 37 30 27 27 26 28 32 35 35
12 13 15 16 17 18 19 21 23 25 27 27 28 28 28 28 28 28 27 27 26 25 26 28 30 33 34 34 34 35 37 39 38 34 29 26 26 26 30 34 35 35
10 12 13 14 15 15 16 17 18 20 21 22 24 25 25 25 26 26 26 27 28 28 28 29 30 33 35 36 35 33 34 35 35 34 28 26 27 28 31 36 36 35
10 10 11 12 13 13 14 15 16 18 19 20 22 23 23 24 24 25 26 26 28 31 32 29 29 30 33 35 36 33 32 33 36 34 27 25 28 30 32 36 37 36
10 10 10 11 12 12 13 14 15 17 18 20 21 22 24 25 26 27 27 27 27 28 29 28 28 28 27 29 31 31 30 33 36 33 26 25 28 29 32 36 38 38
11 11 10 11 12 12 13 14 14 15 16 18 19 21 23 25 26 27 26 26 27 26 26 26 26 23 21 24 28 30 31 34 35 31 26 26 26 27 32 37 39 39
12 11 11 11 12 12 12 13 13 14 14 15 16 17 19 21 23 26 27 28 28 26 25 25 23 21 21 24 27 31 33 35 35 32 27 26 26 28 33 37 39 40
12 12 12 12 12 12 12 12 12 12 13 13 13 13 13 14 16 18 21 23 25 26 26 25 23 23 24 25 26 30 34 35 33 30 26 26 26 29 33 37 39 39
12 13 13 13 13 12 11 11 12 12 11 11 11 10 10 10 11 13 14 16 19 20 21 22 21 21 22 22 23 27 31 31 29 27 27 28 28 29 33 37 38 38
12 13 13 13 13 12 11 12 12 12 11 10 11 10 10 11 11 13 14 15 16 17 18 19 18 18 18 18 19 22 24 25 25 25 27 28 29 30 34 36 38 38
13 13 13 13 13 13 12 12 13 13 12 12 12 12 12 13 13 14 15 15 15 16 16 15 14 14 14 14 15 17 20 21 23 24 26 28 29 32 35 37 38 38
14 14 14 13 13 13 13 13 13 14 13 13 13 13 13 14 14 14 14 14 14 15 15 13 12 12 13 14 15 17 20 22 23 25 27 28 30 33 36 38 38 37
15 14 14 13 13 13 13 13 13 13 13 12 12 12 13 13 14 13 13 12 13 14 14 14 13 13 14 16 17 20 22 23 24 25 27 28 30 34 36 37 37 37
Wind_Direction
251 251 252 253 254 255 254 254 254 255 256 257 258 260 261 262 262 260 258 256 255 254 253 252 252 251 251 248 246 244 244 244 245 246 247 247 245 241 240 242 245 244
252 252 253 253 254 255 255 256 256 255 256 257 258 260 261 262 261 259 258 256 254 253 252 251 251 251 250 248 246 245 245 247 247 245 243 243 243 240 240 244 245 244
252 252 253 254 255 256 256 256 256 256 257 257 258 259 259 260 260 259 258 256 254 253 251 251 251 250 250 249 247 248 249 250 249 245 241 241 242 240 239 242 244 246
252 253 254 255 256 256 256 255 255 256 256 256 257 258 258 259 259 258 257 255 253 252 251 250 250 250 249 248 249 251 252 251 249 245 241 242 243 242 241 243 244 247
252 253 254 255 255 255 254 255 256 256 256 256 257 257 257 258 258 258 256 255 253 252 251 249 249 248 248 247 249 251 251 250 250 247 243 243 244 244 244 244 243 243
250 251 252 253 254 254 254 255 256 256 255 256 256 256 257 257 257 257 256 255 253 252 251 249 248 247 246 246 248 250 251 251 251 249 245 246 250 250 246 245 243 238
250 251 251 252 252 253 254 255 256 256 255 255 255 256 256 256 256 255 255 254 253 251 250 250 249 248 247 246 245 248 251 250 251 251 250 252 255 252 249 251 245 231
249 250 251 251 251 252 253 254 254 254 254 254 253 254 255 254 254 254 254 254 253 252 251 249 248 248 247 245 244 246 249 249 248 249 253 255 252 249 252 253 241 222
249 249 249 249 250 250 251 252 252 252 251 251 251 251 251 252 252 253 253 253 254 254 253 250 248 247 247 245 243 243 248 252 249 249 256 259 254 251 254 249 230 215
251 250 250 251 251 251 250 250 250 249 248 249 249 249 250 251 252 252 252 253 253 254 254 252 249 246 246 245 242 240 248 256 251 247 255 263 258 252 250 239 220 212
251 250 251 251 252 252 251 249 248 246 246 246 246 247 248 249 250 251 251 252 253 254 253 252 249 246 247 247 243 238 247 259 252 244 249 259 258 250 243 231 217 213
247 248 249 250 250 250 248 247 246 245 244 244 245 246 247 248 250 250 249 250 252 253 252 250 249 246 248 250 242 236 248 262 252 242 243 251 253 247 238 227 218 216
241 243 245 247 248 247 246 244 244 243 243 242 242 243 243 245 246 245 247 250 252 253 250 249 250 247 249 250 242 236 251 265 253 240 239 247 249 243 233 225 219 218
238 240 243 243 244 244 242 242 242 242 242 242 241 240 240 242 244 247 252 253 252 254 255 253 252 250 249 249 243 239 251 260 250 236 237 247 248 239 229 223 220 219
245 247 249 248 248 247 244 242 241 240 240 239 238 238 239 242 245 249 253 250 247 252 256 256 255 253 249 243 240 242 250 254 245 236 240 249 250 241 229 221 218 218
257 256 257 257 257 256 254 252 247 245 242 239 237 237 238 240 242 243 245 245 248 252 253 253 256 258 255 247 241 244 253 253 244 238 244 252 253 248 233 221 217 217
269 266 265 265 264 262 260 258 255 252 248 244 241 240 238 240 241 243 244 246 250 254 254 253 255 259 261 255 246 244 252 252 243 239 245 254 256 251 236 223 218 217
270 269 267 264 263 261 259 258 255 252 249 246 242 239 236 236 236 238 241 242 244 250 253 253 254 257 260 257 248 246 252 251 242 240 249 258 257 249 235 226 221 220
272 271 268 262 258 257 255 256 255 253 251 248 246 242 239 237 234 232 234 236 239 244 247 249 254 256 255 254 249 246 250 250 243 242 252 260 257 247 233 226 224 225
275 272 268 262 257 254 253 255 255 253 251 247 245 244 242 240 237 232 231 233 235 239 242 246 253 256 255 258 254 245 244 245 240 241 252 260 257 246 234 227 226 228
273 270 266 261 256 254 254 255 255 253 249 245 242 241 236 235 236 234 234 234 235 238 239 241 247 252 254 258 257 248 242 240 239 244 254 259 255 245 234 229 229 230
263 263 261 258 255 253 254 256 255 253 249 242 238 236 228 223 227 232 234 235 236 238 238 239 244 249 252 255 256 250 244 241 244 253 260 260 254 243 234 231 231 232
253 255 256 254 252 250 249 249 249 248 246 237 230 228 225 224 229 234 234 235 236 237 238 242 246 250 251 251 247 244 242 244 251 258 261 260 254 242 234 231 232 233
242 247 248 247 247 244 240 238 236 236 235 228 222 221 222 226 231 235 237 237 236 237 239 242 246 247 243 237 232 235 243 250 255 257 258 257 251 239 232 231 232 232
232 236 239 239 239 238 234 231 227 226 225 221 219 220 225 231 235 239 242 240 238 239 240 242 246 242 229 221 223 236 248 252 253 255 255 254 248 238 233 232 233 233
224 227 230 231 230 230 228 227 224 222 221 220 220 224 231 237 242 243 244 243 239 237 237 241 245 236 221 222 234 247 254 256 258 260 259 257 251 243 237 235 235 235